Theta_e
325 326 327 326 328 328 330 330 331 333 336 339 338 337 340 341 341 346 351 351 350 352 354 355 353 352 351 348 349 351 352 352 352 352 350 349 348 347 349 351 352 352 353 352 351 350 351 350 350 351 351 350 348 348 349 350 351 351 349 349 350 353 354 351 349 350 352 352 351 350 349 348 348 348 347 347 346 346 346 346 347 348 349 350 349 349 349
325 325 326 327 328 330 331 330 331 334 336 338 338 339 340 341 340 344 349 350 349 350 349 348 349 350 349 348 350 350 349 349 350 350 349 349 349 349 349 352 352 351 351 352 350 350 349 348 351 353 353 352 351 351 353 353 352 352 352 353 353 353 353 349 345 349 354 353 351 351 350 348 348 347 347 347 347 346 346 345 346 347 347 348 349 349 349
328 325 326 328 329 330 331 331 332 335 336 337 339 339 342 344 344 344 345 347 351 351 349 346 348 351 350 348 349 348 346 346 347 347 347 346 347 348 349 351 350 348 348 349 349 350 350 351 353 352 351 351 351 352 355 356 355 355 355 354 354 355 354 350 350 354 356 355 352 350 350 349 349 348 348 347 346 346 346 346 346 346 346 348 347 347 348
329 327 326 327 327 328 329 331 334 336 336 338 339 340 342 343 344 344 344 346 348 347 347 348 350 350 349 346 346 346 345 345 346 345 345 345 345 346 348 348 347 345 347 348 350 350 350 351 351 350 347 347 346 346 348 352 353 354 355 355 355 355 354 353 354 355 356 356 353 350 349 348 348 349 349 348 347 347 347 346 347 346 347 347 347 346 347
327 327 327 327 329 332 330 329 333 338 340 340 340 341 340 340 342 345 345 344 343 343 345 347 346 345 346 345 344 344 345 345 345 345 346 346 346 345 345 346 345 345 347 349 351 351 350 349 349 349 349 347 347 344 344 346 349 349 351 353 352 350 348 347 349 351 353 354 353 351 350 349 348 348 348 348 348 347 347 348 348 348 347 348 348 347 347
326 328 329 328 331 334 333 330 331 336 339 340 341 341 340 340 341 342 341 340 342 342 343 344 343 342 343 343 342 343 344 345 345 345 345 345 346 346 345 345 346 346 347 348 349 350 351 351 350 350 351 350 350 347 345 347 350 350 350 350 349 347 345 344 344 346 349 352 351 352 352 351 349 348 347 347 347 347 348 347 346 345 344 344 346 348 349
328 330 330 332 334 336 335 332 331 333 336 338 339 339 340 340 339 338 337 338 340 340 340 342 343 343 341 341 341 342 343 344 345 346 346 345 345 345 344 344 344 345 346 347 346 347 348 349 351 351 351 351 351 350 349 350 351 352 352 351 351 351 349 347 345 345 346 347 349 350 352 352 351 350 349 347 346 346 347 347 346 344 341 340 343 348 351
329 329 331 335 337 336 335 333 332 331 332 336 340 340 339 339 338 337 336 336 338 340 340 340 341 341 340 340 340 341 343 344 344 345 345 345 345 344 344 344 344 344 345 343 343 344 344 345 347 348 349 350 350 350 351 350 351 351 351 350 350 351 351 351 350 349 348 348 347 347 349 351 351 350 349 348 347 346 346 348 348 346 344 342 342 346 351
329 330 333 335 335 337 336 334 334 332 331 336 344 344 340 339 338 338 336 336 337 338 339 339 338 338 339 339 339 339 342 343 342 342 343 343 344 344 343 344 343 343 343 342 342 344 344 344 344 345 345 346 347 347 347 347 347 347 346 347 349 350 351 350 351 351 351 351 350 349 349 350 350 349 349 348 347 346 346 348 349 347 347 346 346 348 350
330 330 332 331 332 335 338 337 334 331 330 333 339 341 340 338 338 337 336 336 336 337 338 339 337 337 339 340 339 338 338 340 341 341 340 340 341 342 342 342 343 343 343 342 342 342 342 341 341 341 342 342 342 343 343 343 343 343 342 343 344 345 347 347 347 348 349 349 350 350 350 350 350 349 349 348 348 347 347 349 350 348 348 350 351 351 351
330 329 331 331 330 333 339 340 335 330 330 331 332 336 339 338 337 337 335 335 335 336 336 336 336 339 341 340 338 337 335 336 338 337 336 336 337 339 339 339 340 340 340 339 340 341 340 339 338 339 340 339 339 339 339 340 340 340 340 340 340 340 342 343 344 344 345 345 346 347 347 348 349 350 350 349 349 348 348 349 349 348 348 349 350 351 350
330 332 332 332 333 333 335 335 333 330 330 328 328 333 337 336 335 336 335 334 335 334 334 335 336 338 339 338 337 336 333 333 333 332 332 332 333 334 333 333 334 334 333 334 336 337 336 335 335 335 335 335 334 334 334 337 339 338 338 338 337 338 338 339 340 341 341 342 343 344 345 346 347 348 349 349 349 349 349 349 349 348 348 348 348 348 348
331 332 331 331 333 333 332 331 331 331 332 333 333 334 336 335 335 337 335 334 334 333 333 334 335 335 335 335 336 335 333 332 331 330 330 330 329 329 329 329 330 330 330 332 333 333 333 332 332 332 331 331 330 327 327 330 334 336 336 336 335 335 335 336 336 338 339 339 340 340 341 342 343 344 345 346 348 348 348 348 349 349 348 348 347 347 346
330 330 330 332 333 332 331 331 331 331 335 338 337 335 335 334 336 338 335 332 332 332 333 334 334 334 334 334 334 333 332 331 331 330 330 329 328 328 328 328 327 327 328 329 330 330 331 332 331 331 330 329 330 328 327 326 325 326 327 326 324 323 324 325 327 332 336 337 337 337 338 338 339 339 340 341 344 345 345 346 347 348 347 348 348 348 347
331 331 331 334 334 332 330 333 333 335 337 338 335 335 335 335 336 337 336 334 332 330 331 332 333 333 333 332 332 332 332 331 331 330 329 328 327 326 326 325 325 325 326 326 328 329 328 329 330 330 329 328 328 329 329 328 326 324 322 319 317 317 318 318 319 322 327 328 329 333 336 337 336 336 336 336 338 340 342 343 344 345 345 346 346 346 346
331 331 331 334 334 330 330 333 334 335 335 335 335 336 336 336 336 336 336 335 334 331 329 330 331 331 331 331 331 331 332 332 330 329 329 328 327 326 326 325 325 325 325 325 326 326 323 320 321 322 320 321 322 322 322 325 327 327 327 326 325 326 326 326 325 321 320 320 322 325 331 335 335 335 335 334 335 336 337 339 341 342 342 342 342 343 343
331 332 332 331 329 327 329 331 332 332 332 333 335 336 336 336 336 336 335 334 335 334 331 329 330 330 331 332 331 331 332 331 330 329 328 327 327 326 325 325 324 322 321 319 318 316 313 311 311 312 311 312 313 313 314 316 317 319 322 325 328 329 329 330 329 328 326 327 327 326 327 330 333 333 334 334 334 333 334 335 336 336 336 336 336 338 338
331 331 330 328 327 327 328 329 330 330 331 333 335 335 336 336 335 335 335 334 334 335 332 331 331 331 332 333 332 331 332 331 330 328 328 327 327 326 325 324 323 321 321 320 317 313 309 308 309 309 309 309 308 308 308 308 309 310 312 316 321 326 328 328 328 328 329 329 329 328 326 325 326 330 333 334 333 333 333 332 333 333 333 333 333 333 334
332 332 329 328 327 327 327 328 329 329 329 332 334 335 335 336 335 335 334 332 333 334 333 332 332 332 332 332 332 332 332 331 330 329 328 327 326 326 325 325 324 324 325 324 322 318 316 316 314 313 313 312 311 309 307 307 307 308 308 309 311 316 323 327 327 328 329 329 329 329 328 325 322 323 329 333 333 332 332 332 332 333 332 332 332 332 330
332 332 329 327 327 327 327 327 328 328 327 329 332 333 334 334 334 334 333 332 333 333 332 332 333 333 332 332 332 332 332 331 331 330 328 327 326 325 326 326 326 326 325 323 321 321 320 318 316 314 313 312 311 309 308 308 307 308 311 314 315 316 319 323 325 325 325 326 326 327 328 327 321 315 319 327 330 329 329 329 330 331 330 331 331 331 327
331 331 328 327 327 327 327 326 327 328 327 327 329 330 331 331 331 331 332 333 333 333 332 332 332 333 333 332 332 332 332 331 330 329 328 328 326 325 327 327 326 326 326 323 320 319 317 315 313 312 311 311 311 310 309 308 307 309 314 320 323 322 321 322 324 325 323 323 323 322 323 323 319 310 309 316 322 323 325 328 328 328 328 329 328 327 324
332 332 330 328 330 330 328 326 326 327 327 327 327 328 327 329 329 330 331 331 333 333 333 332 331 332 333 332 331 331 331 330 330 329 328 328 327 326 327 328 327 326 326 324 321 319 318 317 316 316 315 313 312 311 311 310 308 310 315 319 322 323 323 323 324 324 324 323 323 322 321 320 315 310 308 310 312 315 319 324 326 326 327 328 327 327 327
332 331 329 328 328 328 327 326 326 327 326 326 327 326 326 327 328 329 328 328 329 330 331 332 331 331 332 332 332 331 330 330 330 329 328 328 328 327 327 327 327 327 328 326 323 320 319 319 319 319 319 317 315 313 312 311 309 310 315 319 320 321 323 324 324 323 322 321 321 323 324 320 315 315 318 318 316 314 313 313 315 316 317 320 322 323 325
330 329 329 328 327 327 326 326 326 326 326 326 326 325 326 327 326 327 327 327 327 328 329 330 330 330 331 330 331 331 331 330 330 330 329 328 328 327 326 326 326 325 325 325 322 320 319 319 319 320 320 319 319 316 314 312 310 310 313 316 317 318 320 322 324 323 322 320 319 322 325 322 316 317 322 323 321 318 315 313 312 311 310 311 312 312 313
328 328 327 327 327 327 326 326 326 326 326 326 324 324 325 325 326 326 326 327 326 327 327 327 328 329 330 330 331 331 330 330 330 330 330 329 328 327 326 326 325 324 323 323 322 322 321 319 319 319 320 320 319 317 314 313 311 310 310 312 313 313 313 314 315 317 317 316 313 315 320 320 318 320 323 323 321 320 319 318 317 316 314 313 313 312 310
328 327 326 326 327 326 326 326 326 326 326 326 324 323 323 324 325 325 325 326 326 326 327 327 328 328 328 328 330 330 329 330 331 331 331 330 330 329 328 327 327 326 326 325 324 323 322 321 320 320 320 320 319 317 314 313 312 310 309 310 311 309 308 307 307 307 308 308 306 307 311 314 318 322 324 322 319 320 322 321 319 317 318 319 318 316 314
327 326 326 326 327 326 326 326 325 325 325 325 325 323 321 322 325 325 324 324 325 325 325 326 327 327 327 327 327 328 328 329 329 330 330 330 330 330 331 330 330 329 329 328 327 326 325 324 322 320 319 319 319 318 315 313 312 311 309 309 309 307 306 306 307 307 307 306 305 304 306 309 314 319 320 320 320 322 323 322 320 319 321 321 320 318 315
325 325 325 326 327 327 327 326 325 325 324 323 323 322 320 321 324 324 324 324 323 324 324 323 323 325 325 325 326 326 327 327 328 328 328 328 329 330 331 331 331 330 330 329 329 328 328 327 325 321 319 319 319 319 316 313 313 312 311 310 310 309 308 309 310 310 309 307 306 305 305 306 309 312 314 318 321 323 323 322 322 320 320 320 319 319 317
325 326 327 327 327 327 326 325 325 325 322 321 321 320 320 320 321 322 323 323 322 322 322 321 321 323 324 322 323 324 325 326 327 328 329 328 328 328 329 329 330 330 330 329 329 329 328 328 326 324 321 319 319 319 317 314 313 313 312 312 312 312 310 310 312 311 309 308 308 308 306 305 306 308 310 313 318 321 321 322 322 320 317 318 320 320 318
325 326 327 328 326 325 325 324 324 324 322 320 320 319 319 318 318 319 320 321 320 319 319 320 321 322 322 321 321 323 324 324 324 325 326 327 328 327 327 327 327 328 329 329 329 329 329 328 328 326 323 320 319 318 317 314 313 313 313 313 314 315 313 312 313 313 312 312 312 310 309 308 308 310 311 312 315 318 319 319 320 318 316 318 320 320 319
325 325 326 326 325 324 324 324 323 323 321 319 318 318 318 318 318 318 318 318 318 318 318 319 319 320 320 320 320 321 321 320 319 319 320 322 323 324 325 325 325 326 326 326 327 327 328 327 328 326 324 321 319 318 317 315 313 313 313 313 315 317 316 314 314 314 314 314 314 313 313 314 314 314 314 314 316 318 319 318 319 319 319 319 320 319 318
325 324 325 324 323 323 324 323 323 322 321 319 319 319 318 318 318 317 317 317 317 316 316 316 316 318 319 320 319 319 319 318 318 318 317 316 317 319 321 323 324 324 325 325 326 326 326 327 327 326 325 323 321 319 318 316 314 313 314 314 315 316 316 314 314 314 314 314 314 314 315 316 316 316 316 315 316 317 317 317 318 319 319 318 318 318 317
324 324 325 324 322 323 323 323 321 321 320 320 320 320 319 318 318 318 318 318 317 317 316 317 317 317 317 318 318 318 318 317 318 318 317 316 317 317 318 319 321 321 323 324 324 324 325 325 325 325 325 323 323 322 321 318 316 315 315 315 315 315 315 314 314 314 314 314 314 314 315 315 316 317 317 317 317 317 317 317 317 317 317 317 316 316 316
325 324 324 323 322 322 323 322 320 321 321 320 319 319 318 317 317 317 317 317 316 316 316 316 316 316 316 317 317 317 316 316 317 317 317 318 318 318 318 318 318 318 320 321 322 322 323 323 323 324 324 324 324 324 323 321 319 319 318 317 316 315 314 314 313 313 313 314 315 315 315 315 315 316 317 317 316 316 316 316 316 316 316 315 315 314 314
324 324 324 323 322 322 322 321 320 320 320 319 318 318 317 317 317 316 316 315 315 315 315 315 315 315 316 316 316 316 316 316 316 316 316 316 316 317 317 318 317 317 317 318 319 321 321 321 319 320 321 322 322 322 322 322 321 321 320 319 318 317 316 315 314 313 314 315 316 316 316 315 314 315 316 316 315 315 315 315 315 315 314 314 313 313 313
324 324 324 323 322 322 321 320 320 320 319 319 318 317 317 316 315 315 314 314 313 313 313 314 314 314 315 315 316 316 316 316 316 316 316 316 316 316 316 317 318 318 318 318 318 318 319 319 318 319 320 321 322 321 321 321 320 320 319 319 319 319 318 317 316 314 315 316 317 317 316 315 315 315 315 315 315 314 313 313 313 313 313 312 312 312 312
324 324 324 323 322 322 320 319 319 319 318 317 316 315 315 314 314 314 313 312 312 312 312 313 312 312 313 314 315 315 315 315 315 315 315 315 315 315 315 315 316 317 317 318 318 318 318 319 320 319 320 321 321 322 321 320 319 318 318 319 318 318 317 317 316 315 316 316 317 316 315 314 314 314 314 314 313 312 312 312 312 312 312 312 311 311 310
324 324 323 323 322 321 320 319 318 317 316 316 316 316 315 315 314 314 313 313 314 314 314 314 313 313 312 313 313 313 314 314 313 314 313 313 314 314 314 314 315 315 316 316 317 318 318 319 318 317 317 318 318 319 320 320 319 318 318 318 318 317 316 316 315 314 314 315 315 315 314 314 313 313 313 313 312 312 311 311 311 311 311 311 311 310 309
323 323 323 322 321 319 318 317 316 316 316 316 316 315 315 314 313 313 312 313 314 314 314 314 313 313 313 313 313 312 313 313 313 313 313 312 312 313 313 314 314 314 314 315 315 316 316 316 316 316 316 316 315 314 315 316 318 318 317 317 317 316 315 315 314 314 314 314 314 314 314 313 313 313 312 311 311 311 310 310 310 310 310 310 310 310 309
324 323 322 320 318 317 316 316 316 316 316 315 315 314 314 313 313 312 312 312 312 313 313 313 313 313 313 313 312 312 312 312 312 312 312 312 312 312 313 313 313 313 314 313 313 314 314 314 314 314 314 313 313 312 312 313 316 317 316 315 315 315 315 315 314 314 314 314 314 313 313 312 312 312 312 311 310 310 310 309 309 308 308 308 308 308 308
322 320 319 318 317 316 317 316 316 316 315 314 313 313 313 312 312 312 312 312 311 311 311 311 312 312 312 312 312 312 311 311 311 311 311 312 312 312 312 312 312 312 312 312 312 312 312 311 311 311 311 312 311 311 311 312 316 317 316 314 314 314 314 314 314 313 313 313 313 313 312 312 312 311 311 310 310 309 309 309 308 307 307 306 306 306 306
320 319 318 317 317 316 316 316 315 315 314 313 313 312 312 312 311 311 311 311 311 311 310 311 311 311 311 311 311 311 311 311 311 311 311 312 312 312 311 311 311 311 311 311 311 310 310 310 310 309 309 310 310 310 311 313 316 316 315 314 314 314 314 314 314 313 312 312 312 312 311 311 310 310 309 309 308 308 307 307 307 306 305 305 304 304 304
320 318 317 316 316 315 315 315 314 313 312 312 312 312 311 311 311 311 311 312 312 312 311 311 311 312 312 312 312 311 312 312 312 312 311 311 311 311 311 310 310 310 310 310 310 310 309 309 309 309 309 310 311 312 313 315 315 315 314 314 314 313 312 312 312 312 312 311 311 310 310 310 309 309 308 307 306 306 305 305 305 305 304 304 303 303 303
319 317 316 315 315 315 314 314 313 312 312 312 312 311 311 311 312 312 312 312 312 312 312 312 312 312 312 312 311 311 311 311 311 311 311 310 310 310 310 310 310 310 310 310 309 309 309 309 309 310 311 313 314 314 315 315 314 314 314 314 313 312 311 310 311 311 311 310 310 310 309 308 308 308 307 306 305 304 304 304 303 303 303 303 303 303 303
318 316 315 315 314 314 313 312 312 312 312 311 310 311 312 312 312 312 311 311 311 310 310 310 311 311 311 311 311 311 311 310 310 310 310 310 310 310 309 309 309 309 309 309 309 310 310 310 310 311 312 313 313 313 313 313 313 313 314 313 312 311 310 310 309 310 310 309 309 309 309 308 307 307 307 306 305 304 304 303 303 302 302 302 302 302 301
316 315 314 314 313 312 312 312 311 311 310 310 310 311 312 312 311 311 310 310 310 309 309 309 309 309 310 310 310 310 310 310 309 309 309 309 309 309 309 309 309 309 309 309 310 310 311 311 311 312 312 312 312 312 312 312 311 311 311 310 309 309 308 308 308 308 308 308 308 308 308 307 306 305 304 304 303 303 302 302 302 302 301 301 301 301 300
315 314 313 313 312 311 311 311 310 310 310 311 311 312 312 311 310 310 310 309 309 309 309 308 308 308 309 309 309 309 309 309 309 309 309 309 309 308 308 308 308 309 309 309 309 309 310 310 310 310 310 310 310 309 308 308 308 308 308 308 308 307 307 306 306 306 305 305 305 304 304 304 303 303 302 302 302 302 301 301 301 300 300 300 299 299 299
313 313 313 312 311 311 311 310 309 310 311 311 311 311 311 310 310 310 309 309 309 309 308 308 307 308 308 309 309 309 309 308 308 309 309 309 308 308 308 307 307 308 308 308 308 308 309 309 309 308 308 308 308 306 305 305 306 307 307 307 306 306 305 304 304 304 303 303 303 302 302 302 302 301 301 301 301 301 301 300 300 300 299 299 298 298 298
313 312 312 311 310 310 310 310 309 309 310 311 311 310 310 310 310 309 309 308 308 308 308 308 307 307 307 308 308 309 309 308 308 308 308 308 307 307 307 306 306 307 307 307 307 308 308 308 308 307 307 306 306 305 305 305 306 306 306 305 305 304 304 304 304 303 303 303 302 302 302 301 301 301 300 300 300 300 300 299 299 299 298 298 298 298 298
312 312 311 310 310 311 310 309 310 311 311 310 310 310 310 310 310 309 308 307 307 308 308 308 307 307 307 307 308 308 308 308 308 308 307 307 307 306 305 305 305 305 306 306 306 306 306 306 306 306 306 305 305 305 305 305 305 305 304 304 304 304 303 303 303 303 302 302 302 301 301 300 300 300 300 300 299 299 299 299 298 298 298 297 297 297 297
311 311 310 310 310 310 309 309 310 310 310 310 309 309 308 309 309 308 307 306 307 307 307 307 307 306 306 307 307 307 307 307 307 307 307 306 306 305 304 304 304 304 304 305 305 305 305 304 304 304 304 304 304 304 304 304 304 303 303 303 303 303 302 302 301 301 301 301 301 300 300 299 299 299 299 299 299 299 298 298 298 298 298 297 297 297 297
310 310 310 310 310 309 309 309 308 308 308 309 308 307 307 308 308 307 306 306 306 306 306 307 306 306 306 306 306 306 306 305 305 305 305 304 302 302 302 302 302 301 301 301 302 302 302 302 302 302 302 302 303 303 303 303 303 302 302 302 302 302 302 301 301 301 300 300 300 300 299 299 299 299 299 298 298 298 298 298 297 297 297 297 297 297 297
Wind_Speed
7 7 7 7 8 6 9 13 13 14 15 16 14 12 14 12 4 5 10 13 10 8 9 7 7 7 6 3 4 11 13 14 13 11 11 9 9 11 10 14 20 24 26 28 30 31 29 27 28 30 30 30 28 27 26 25 25 25 25 23 24 24 24 23 21 17 16 19 21 21 21 21 20 19 18 17 17 17 16 15 15 15 13 12 12 13 13
9 9 7 6 7 8 10 13 13 13 13 14 14 14 16 16 11 4 6 12 8 4 7 6 6 7 11 10 9 13 14 14 11 9 10 11 13 15 13 11 13 18 25 27 26 29 32 31 30 30 30 29 28 28 28 26 23 23 25 27 27 26 24 21 19 19 20 22 22 22 22 22 21 21 21 19 18 17 17 17 17 18 17 16 15 14 14
7 7 6 5 7 7 8 11 13 13 13 12 13 14 14 12 9 11 8 4 6 2 4 5 6 8 15 13 11 12 12 11 10 7 9 10 13 16 17 15 10 10 16 21 20 20 25 28 28 26 24 22 21 21 24 25 25 24 24 26 26 24 22 21 21 22 24 23 23 23 23 24 23 22 22 22 20 19 19 19 18 17 17 18 18 15 13
4 5 5 5 7 7 9 11 12 11 11 9 9 11 11 8 6 7 11 5 3 6 5 5 9 13 17 16 13 11 7 8 10 10 7 6 8 12 13 14 11 7 8 16 19 19 22 24 23 20 19 17 14 13 14 17 21 23 23 23 23 20 19 20 21 22 22 22 22 23 23 24 24 23 23 23 22 21 20 20 20 19 18 18 18 17 14
2 5 8 7 6 5 5 8 9 9 9 8 9 10 11 9 5 3 4 4 5 8 5 8 12 14 13 13 14 11 6 7 13 14 12 8 5 5 5 6 10 11 10 12 15 15 19 24 23 22 23 21 19 17 16 14 15 18 21 21 21 19 18 19 20 21 21 21 22 22 23 23 22 22 22 22 23 23 21 20 20 20 20 19 18 18 16
2 5 6 5 4 4 2 6 8 7 7 8 10 11 11 9 6 5 4 4 6 5 6 8 10 11 11 11 13 10 6 8 13 15 16 15 13 10 8 7 9 13 13 11 12 13 15 20 24 23 21 19 18 18 18 16 14 15 17 19 21 22 22 23 23 23 23 22 21 22 22 22 21 21 21 22 23 23 22 22 22 21 20 20 18 16 16
1 3 4 3 2 0 2 6 8 5 4 5 8 11 12 11 10 10 7 7 6 7 9 10 14 17 16 16 13 9 9 11 12 15 17 17 15 12 10 9 8 10 11 10 9 8 8 11 16 18 17 16 15 15 15 15 14 13 14 15 17 18 19 20 22 23 24 23 23 23 22 23 23 22 22 22 22 22 22 22 22 22 21 20 19 17 17
0 1 2 2 1 4 5 6 6 3 2 2 3 8 11 11 9 9 5 6 7 9 13 16 19 20 20 20 18 14 10 12 12 14 16 17 17 15 11 10 9 8 8 8 7 7 6 6 8 9 10 11 12 12 12 12 12 12 13 13 12 12 12 14 16 18 20 21 23 23 23 24 24 23 22 22 21 21 22 22 22 21 21 21 21 20 20
1 3 3 2 2 3 4 4 4 4 4 3 2 4 7 8 9 7 3 2 4 8 13 18 22 24 21 17 18 17 14 15 14 15 16 16 16 17 16 15 17 17 14 12 12 11 9 8 8 7 6 6 7 8 7 7 6 7 8 8 8 8 9 10 12 13 15 16 18 20 21 22 23 22 22 23 23 22 22 22 22 22 22 22 22 22 23
1 3 3 2 2 0 2 3 7 10 7 1 2 2 4 6 10 9 4 3 5 9 12 15 21 24 18 9 10 15 15 17 17 18 19 17 15 17 18 18 19 20 19 16 14 14 14 13 13 14 12 10 10 10 11 10 9 8 7 5 4 4 5 6 8 9 11 13 14 16 17 18 18 19 19 20 22 22 22 21 21 22 22 21 21 22 24
1 3 3 1 2 1 2 3 9 11 8 3 1 1 3 5 8 9 6 6 10 14 16 17 17 16 10 3 6 12 16 19 19 17 18 17 15 17 19 19 19 21 20 17 14 15 16 16 14 15 15 16 16 15 13 11 11 11 11 10 8 6 5 4 4 4 4 6 8 10 13 15 16 17 17 17 17 19 21 22 22 23 23 22 22 22 22
3 3 3 1 2 2 1 2 7 11 10 8 3 1 1 3 5 6 6 8 11 14 20 23 15 8 7 5 3 7 14 18 19 16 17 17 16 18 21 22 22 22 20 19 18 18 18 15 13 14 14 15 15 14 12 12 13 13 13 11 9 7 5 4 5 5 5 4 2 2 4 7 10 12 15 16 17 19 20 21 21 22 22 22 23 24 25
3 5 3 1 3 2 4 7 8 10 9 5 3 2 3 3 4 5 6 8 9 11 17 21 14 9 11 12 9 8 11 15 17 17 17 18 18 17 18 19 19 19 18 18 18 19 18 16 15 15 15 14 14 14 14 15 15 14 12 9 7 6 6 7 8 8 8 8 8 7 6 4 2 3 5 8 13 15 16 18 21 21 21 22 23 25 27
3 3 2 2 3 3 9 8 10 12 5 2 3 1 3 1 4 6 7 9 12 15 19 21 19 16 17 18 17 15 15 17 18 16 16 17 17 16 15 15 17 19 19 17 15 14 13 12 12 13 13 14 16 16 16 16 14 12 12 10 10 11 12 12 11 10 9 9 9 10 10 9 7 6 5 4 4 5 7 11 16 17 16 18 20 21 23
3 2 3 3 1 5 10 7 8 10 4 5 7 5 4 4 6 9 9 9 12 15 19 21 20 18 18 18 18 18 18 19 18 16 15 17 17 16 16 15 15 14 13 13 13 10 9 9 11 11 11 13 15 15 15 16 15 14 13 13 14 16 16 16 15 13 11 10 10 11 11 11 10 10 10 9 7 5 5 4 6 8 9 11 13 15 17
2 2 2 2 2 5 11 10 6 5 6 10 10 9 7 6 8 10 11 10 10 11 15 19 18 17 17 16 15 15 16 17 18 16 15 16 16 15 14 13 13 12 10 9 8 8 8 8 9 9 8 10 11 12 13 14 14 14 13 13 14 15 15 16 16 15 13 13 12 12 11 10 10 11 11 11 11 9 6 5 4 5 4 4 5 6 7
3 4 3 6 8 12 17 17 14 12 12 10 10 11 9 7 9 11 12 12 11 10 13 16 14 13 13 12 11 12 14 15 16 15 14 16 16 15 13 11 11 12 12 11 10 10 10 10 10 9 8 8 9 10 11 11 10 10 11 11 11 11 11 11 12 13 14 14 14 12 11 10 10 11 10 9 11 12 11 9 8 8 8 6 4 2 1
6 9 8 11 15 18 19 19 16 13 12 11 12 13 11 7 8 10 11 13 14 13 13 13 11 11 12 12 11 10 12 16 15 13 13 14 14 13 13 11 8 10 12 13 12 12 12 11 11 11 10 9 9 10 9 9 8 8 8 8 10 10 11 11 10 10 11 11 10 10 10 9 9 10 10 9 9 10 11 11 10 9 9 8 7 6 5
5 5 6 10 15 18 19 19 17 14 13 13 13 13 12 11 10 10 11 12 13 13 13 12 13 13 12 12 12 10 12 13 12 11 13 13 12 13 13 11 10 12 13 12 11 12 12 12 11 10 10 9 9 10 9 7 7 7 8 9 10 9 10 11 11 11 10 8 6 5 6 6 6 7 8 9 8 7 7 8 9 7 6 5 5 5 5
5 5 8 15 19 19 19 19 18 15 14 14 15 15 14 13 12 11 11 12 11 11 11 12 13 14 13 14 15 13 12 11 10 12 15 16 15 15 12 10 11 11 9 9 8 9 10 10 8 8 8 7 7 8 7 7 7 8 11 13 13 12 11 11 10 8 6 5 5 3 1 2 3 3 4 8 7 6 5 6 7 6 4 4 3 2 3
6 6 11 17 17 15 17 19 18 17 16 16 16 15 15 14 13 12 11 11 9 9 10 10 11 12 12 13 15 14 12 11 12 14 15 14 14 13 10 10 11 11 8 6 6 6 6 6 5 5 5 5 5 5 4 5 7 10 13 13 11 10 11 12 10 7 4 4 4 4 3 2 3 1 3 6 6 5 6 7 6 5 4 3 2 1 2
3 2 7 12 10 7 12 17 18 17 17 16 15 14 14 14 13 11 11 11 9 7 8 8 9 10 10 10 10 10 10 10 11 13 13 12 12 11 9 9 11 11 9 6 3 3 3 3 4 4 4 4 4 3 3 4 7 9 11 11 9 9 11 11 12 10 7 5 4 4 2 1 3 4 5 5 4 4 5 6 6 5 4 3 3 3 2
4 6 13 17 15 12 13 16 16 15 15 16 15 14 13 12 12 11 11 11 10 9 8 6 6 8 9 8 7 7 7 8 8 10 12 11 11 11 11 10 9 9 9 7 4 2 2 2 2 3 3 3 2 2 1 2 5 8 9 9 9 11 12 12 13 12 9 5 4 3 1 3 5 5 6 6 5 4 4 2 3 4 5 5 6 6 6
10 13 19 21 19 16 14 14 15 15 15 15 15 13 11 11 11 10 10 10 10 10 9 8 7 5 6 6 5 5 5 6 6 8 10 11 10 10 11 11 11 10 9 8 7 7 6 6 5 5 5 5 5 4 2 1 2 6 8 8 8 9 11 13 14 12 10 7 5 4 3 1 2 3 4 5 5 6 5 4 3 2 1 2 3 5 6
15 15 17 18 18 17 14 12 13 14 14 14 13 12 11 10 8 8 9 9 9 9 9 8 8 6 5 4 3 2 2 3 3 5 7 8 10 10 11 12 13 12 12 11 10 9 8 8 8 8 7 7 6 5 4 4 4 5 7 7 6 5 7 10 12 12 11 8 7 8 7 5 3 3 3 3 4 6 6 5 5 5 5 4 4 4 4
18 16 17 17 18 17 16 15 14 12 11 10 9 9 10 10 8 7 7 7 7 9 9 8 8 7 6 5 4 2 1 2 3 4 6 7 8 9 10 12 13 13 13 13 12 11 10 9 9 9 9 8 7 6 6 5 5 5 6 6 4 2 3 5 7 9 9 8 6 6 8 9 7 5 3 1 2 4 5 5 5 5 5 5 6 6 5
16 16 17 17 17 16 17 17 16 13 11 10 9 9 10 10 9 8 7 6 5 6 5 5 6 5 4 4 4 3 1 1 2 4 6 8 9 9 9 10 11 12 13 14 15 14 12 12 12 12 11 10 8 7 7 7 6 5 6 6 5 2 2 3 4 5 4 3 3 3 5 8 10 8 5 4 3 4 4 5 5 4 4 5 7 7 7
13 11 11 13 15 17 17 18 17 14 12 11 9 7 7 8 9 10 9 8 7 5 2 2 3 3 1 1 1 2 2 0 2 4 6 6 8 8 9 10 12 12 13 15 16 16 15 14 13 13 12 11 10 9 8 8 8 7 7 7 6 4 4 4 3 1 2 3 3 3 3 6 8 7 6 7 6 4 3 2 2 2 4 5 6 7 7
11 9 8 12 18 18 17 17 14 12 11 10 8 8 8 8 9 10 11 11 9 5 3 3 2 2 2 3 3 1 2 2 1 3 5 6 7 8 9 11 13 14 15 15 15 16 17 16 15 15 14 14 14 11 10 10 10 9 9 9 8 8 7 6 3 1 2 2 2 2 3 5 6 6 5 6 7 6 4 1 2 3 4 4 4 6 6
11 11 12 15 17 16 15 15 13 11 11 11 9 8 8 8 8 8 8 8 6 4 3 2 1 1 1 2 2 2 3 5 5 6 6 6 8 9 9 10 12 15 16 17 17 18 18 18 18 17 16 16 16 14 13 13 12 12 13 13 12 10 8 7 5 3 3 2 2 3 4 4 5 5 4 4 5 6 4 2 1 2 3 4 5 6 7
13 12 12 14 14 13 14 15 13 12 12 10 9 8 8 7 7 6 5 4 4 2 2 1 1 2 3 5 5 6 7 9 10 10 9 8 9 10 10 11 11 12 14 16 18 20 21 21 20 19 18 18 18 18 17 16 15 16 17 16 14 11 9 8 7 6 5 4 4 4 4 4 4 3 3 4 6 5 4 3 1 3 5 4 4 5 6
13 12 12 13 12 13 14 15 13 12 11 9 8 9 8 6 6 5 3 3 3 2 3 3 4 4 4 4 5 7 8 10 10 11 12 11 11 10 11 12 12 13 14 15 16 18 20 22 23 21 19 19 19 20 20 19 19 20 20 18 15 13 12 11 10 8 7 6 6 5 5 5 5 3 3 4 6 6 6 5 4 6 7 5 6 7 9
15 15 14 13 12 13 15 15 12 11 11 10 8 8 7 5 5 5 3 3 3 3 3 4 6 7 8 8 8 8 9 9 10 11 12 12 11 11 11 12 13 14 15 15 15 15 17 20 22 22 21 20 20 22 23 23 22 23 22 20 17 16 15 13 12 10 9 8 8 7 7 7 6 6 5 5 6 7 8 7 6 7 8 8 8 10 11
14 14 14 13 13 12 14 15 13 11 11 10 7 6 6 6 6 6 4 4 4 4 5 5 6 7 9 10 10 11 11 11 12 12 11 10 10 10 11 13 14 16 16 16 16 16 16 16 17 18 21 23 24 24 24 24 25 25 23 19 18 17 17 16 14 11 10 10 9 9 8 8 8 9 9 9 7 7 9 9 9 8 8 8 8 9 11
12 11 11 12 11 9 10 13 13 13 12 10 8 7 8 8 7 6 6 6 6 6 7 7 8 8 8 8 9 10 11 12 13 14 14 14 14 13 12 12 13 15 16 17 16 16 16 16 16 16 18 22 26 27 26 23 22 22 20 18 17 16 16 16 16 13 10 9 10 10 10 9 9 10 10 9 7 7 7 8 9 8 7 8 9 11 12
12 12 12 13 12 11 11 12 12 13 13 11 9 8 7 7 7 7 7 7 8 8 9 9 10 10 10 10 10 10 10 10 10 11 12 14 16 16 16 15 14 14 15 16 17 17 17 17 16 16 16 18 23 28 29 25 21 20 20 19 17 16 15 16 15 13 12 11 12 13 12 9 8 9 8 7 6 6 6 6 7 6 5 4 5 7 9
13 14 15 15 14 13 13 12 12 12 12 10 8 7 7 6 6 7 7 8 8 8 9 9 11 11 11 12 12 13 13 13 12 12 12 13 13 13 14 16 17 16 16 16 16 17 17 16 15 16 17 18 21 26 27 25 23 21 21 20 17 14 13 13 13 13 13 14 14 14 12 9 7 8 8 7 6 5 4 6 8 9 9 7 4 2 4
13 15 16 15 14 13 13 12 10 9 8 7 7 7 6 6 6 7 7 6 5 5 6 7 8 8 9 10 11 12 12 13 13 13 14 14 14 13 13 14 15 16 17 17 17 16 17 16 15 17 18 19 21 22 23 24 24 24 25 26 24 20 18 15 13 11 11 12 13 13 11 8 7 8 7 6 6 7 7 9 10 11 12 13 11 7 4
15 16 15 14 13 12 10 8 7 7 8 8 7 5 4 5 5 6 7 6 7 7 7 8 8 8 8 8 8 9 10 10 12 13 13 13 13 14 13 13 14 15 17 19 19 18 19 19 19 19 20 20 20 22 22 22 23 26 25 24 25 24 20 16 13 12 12 12 13 13 12 10 9 9 8 6 7 9 10 11 12 13 15 16 16 15 12
17 17 15 13 12 10 9 9 8 7 7 6 4 3 3 3 4 5 6 7 8 9 9 9 9 9 9 9 10 10 11 12 13 13 13 13 13 14 14 14 14 15 16 18 18 18 18 19 19 20 21 21 22 23 21 19 21 26 25 21 19 19 17 14 12 13 14 15 14 13 13 12 12 12 12 11 11 13 13 13 12 12 13 15 16 15 13
17 15 13 12 11 10 10 9 7 6 5 4 3 4 4 5 5 6 6 7 7 8 8 8 8 9 10 11 12 13 14 14 14 14 15 15 16 16 16 15 15 16 18 18 18 18 18 18 18 19 20 21 22 23 21 18 19 25 26 22 18 16 14 14 15 15 15 15 14 13 12 12 11 10 11 13 14 15 15 16 15 13 11 10 9 9 8
16 15 14 13 12 10 9 8 8 7 5 4 5 6 6 6 6 5 6 6 7 7 8 7 8 9 10 11 11 12 13 13 14 15 16 16 17 18 19 19 20 21 22 21 20 19 18 18 18 17 18 20 21 21 20 17 20 24 25 23 22 20 18 20 21 18 15 13 13 12 12 11 9 8 9 11 13 14 15 16 16 14 10 8 7 8 9
16 15 14 12 11 10 9 9 8 7 5 5 6 7 6 5 4 4 4 5 6 7 7 8 9 9 9 10 11 12 12 13 14 16 17 17 18 19 20 21 21 21 21 21 20 20 19 18 16 15 16 18 19 19 18 18 20 22 23 25 26 24 19 17 19 19 17 14 12 12 11 9 9 11 12 11 9 9 9 10 10 9 10 9 10 12 13
16 15 13 12 11 10 10 8 7 6 7 7 6 4 3 3 3 4 5 5 6 6 7 9 10 9 9 10 12 12 13 14 15 16 17 16 16 16 17 17 17 17 17 17 17 17 16 15 14 13 14 15 14 13 14 16 17 19 22 25 26 23 18 15 16 19 18 16 14 14 13 10 10 13 14 12 9 7 6 5 5 7 10 12 14 15 14
16 15 14 13 13 11 10 8 8 8 8 6 3 1 1 2 3 4 5 6 7 7 8 9 9 9 10 11 11 12 13 14 14 14 15 16 16 16 15 15 15 15 14 14 14 14 13 12 11 11 12 13 11 11 12 13 14 17 19 19 18 17 17 17 18 19 20 19 18 17 15 13 13 15 16 16 15 12 9 8 8 10 11 12 13 14 14
17 15 14 13 13 11 9 8 8 7 5 3 1 1 3 4 3 3 4 6 7 6 6 7 8 9 10 11 12 12 12 11 11 12 13 13 13 13 13 12 12 10 9 10 10 10 9 10 11 11 10 10 9 9 9 9 11 12 13 13 13 14 15 17 17 16 17 18 19 18 17 17 17 16 14 13 12 10 9 10 13 14 14 14 13 12 12
15 14 14 13 12 10 8 7 5 4 3 3 2 3 3 2 2 3 3 4 4 4 5 7 8 9 9 9 10 10 9 7 7 9 9 9 10 10 10 10 10 9 8 8 6 5 6 9 10 10 10 10 9 8 6 7 9 11 11 12 12 10 10 12 12 10 9 10 12 12 11 12 11 9 7 6 7 9 10 12 13 14 14 14 13 12 12
13 14 15 13 10 8 8 5 3 4 5 4 4 3 3 3 4 3 2 3 3 4 5 7 8 8 8 7 6 6 7 6 5 6 7 8 9 10 9 9 9 8 7 7 5 3 5 7 8 8 9 9 7 8 10 12 13 11 10 11 10 5 3 5 9 10 10 10 10 9 8 9 10 10 9 9 10 11 13 13 13 12 13 12 10 8 9
14 15 14 12 9 7 6 4 4 5 6 5 4 4 3 3 2 1 1 3 3 3 4 5 7 8 8 6 4 4 5 5 5 6 7 8 9 9 8 7 7 7 5 5 4 4 5 6 6 6 6 6 8 12 14 15 14 11 8 9 9 7 5 7 11 12 13 13 11 9 8 8 8 7 8 9 11 12 13 14 14 13 12 11 9 8 9
16 13 11 11 10 9 7 5 6 8 7 5 4 4 3 2 2 1 1 3 2 2 2 4 6 6 7 6 4 4 5 5 4 5 6 7 7 7 5 5 5 5 4 3 3 4 4 5 4 4 6 9 12 13 12 12 13 12 10 8 8 8 8 9 10 12 13 13 12 10 8 8 8 5 4 6 8 9 10 11 11 10 9 9 8 9 9
13 11 11 12 11 10 8 7 7 8 7 6 5 4 5 6 4 1 2 3 2 1 2 4 6 6 6 6 6 5 5 4 5 6 7 6 5 4 3 3 4 5 4 2 1 2 3 4 5 9 11 11 11 12 13 13 13 12 10 8 8 8 7 6 6 6 8 9 9 8 6 5 7 8 7 7 7 9 10 11 10 10 9 8 8 8 8
11 10 12 13 11 9 6 4 4 5 7 6 5 4 7 9 7 2 3 3 2 1 1 3 5 6 5 5 6 6 6 6 6 5 4 6 7 7 6 5 5 5 6 5 3 1 1 2 8 13 12 8 7 10 12 11 9 8 6 5 8 11 11 10 8 8 7 9 9 7 4 3 5 6 7 8 10 11 13 13 12 10 9 8 7 7 6
Wind_Direction
308 299 290 303 316 341 26 33 31 31 30 30 36 26 6 4 28 151 155 141 137 183 210 209 195 156 141 176 124 99 96 97 108 122 130 145 156 149 163 186 183 179 178 177 178 180 179 179 183 185 185 185 186 187 187 187 186 187 188 186 188 195 199 200 201 204 205 199 196 200 202 200 203 207 209 213 214 214 219 225 225 227 230 234 243 250 249
311 305 303 331 359 16 36 36 31 38 42 37 37 31 19 14 10 20 126 130 127 208 223 220 219 163 134 140 125 101 102 107 116 139 147 159 176 171 168 175 171 178 189 186 177 177 181 182 182 181 179 181 183 183 183 182 181 186 189 188 189 194 198 200 200 203 208 208 203 203 203 201 204 208 209 213 218 218 221 219 213 216 221 221 226 237 245
302 303 322 2 22 20 33 38 31 35 43 38 36 37 28 19 14 358 353 92 105 306 250 170 163 133 114 113 106 99 106 106 106 137 157 164 176 178 182 187 172 157 174 180 179 179 178 178 178 174 170 173 179 181 180 177 176 181 189 192 192 192 194 198 200 200 204 209 209 208 209 209 209 210 210 213 219 222 224 223 219 221 223 222 221 223 226
300 327 354 23 41 29 25 33 30 30 40 39 40 45 34 30 49 5 332 331 27 325 315 75 71 74 85 89 88 97 125 129 114 113 113 134 181 191 192 186 176 164 163 173 181 185 184 186 188 187 186 191 201 206 201 191 187 186 187 189 190 189 192 198 204 207 208 210 212 212 213 213 214 216 215 216 220 224 227 227 225 225 225 223 223 221 219
312 6 12 19 45 50 21 16 23 34 47 48 45 46 38 32 56 65 337 318 312 314 340 44 41 39 52 74 93 109 144 144 127 120 114 113 135 172 176 154 159 170 168 165 168 169 180 193 201 206 207 210 217 220 220 220 215 206 200 197 196 200 207 210 212 215 216 216 218 219 220 220 220 221 220 221 224 226 228 228 226 227 229 227 227 227 225
330 357 7 18 54 79 34 345 358 30 58 62 57 52 43 40 57 74 40 325 308 344 33 59 66 60 53 69 97 114 127 132 128 120 117 116 111 117 132 133 152 166 160 147 138 134 154 180 193 202 207 210 215 216 214 216 221 219 214 212 212 216 222 224 223 222 220 220 222 224 226 228 228 228 227 227 227 228 231 233 232 232 233 234 235 232 227
344 343 9 50 72 30 294 320 338 20 60 61 71 67 53 52 65 63 34 335 339 45 57 62 79 88 85 79 80 90 108 123 126 117 115 121 119 122 142 154 166 174 161 142 130 121 127 155 174 186 192 195 201 204 203 206 212 215 215 214 214 216 222 226 227 227 227 228 228 228 229 231 232 233 234 233 231 231 234 236 237 236 236 238 239 235 231
355 18 43 90 182 283 298 319 333 7 13 339 65 68 49 47 61 66 44 335 356 56 72 72 79 88 90 76 54 50 91 118 117 109 109 116 118 117 127 136 131 131 132 120 104 93 91 111 142 164 176 182 190 194 196 201 209 217 222 222 217 215 218 222 226 229 230 232 232 231 231 232 233 234 235 236 236 236 235 235 237 236 236 238 238 237 235
353 65 78 123 179 292 321 332 320 318 323 329 64 68 48 45 44 51 70 334 2 63 79 84 86 79 72 63 45 46 81 106 104 101 101 103 109 109 110 109 99 91 91 92 88 88 93 103 105 106 132 165 178 181 179 177 181 196 209 215 217 218 220 223 226 229 230 232 232 232 231 233 236 236 238 239 240 239 237 235 236 238 239 238 236 235 235
31 88 104 128 140 243 317 304 296 305 316 326 125 72 42 40 32 31 35 22 47 71 78 87 88 75 60 38 28 44 74 95 96 96 95 94 103 109 108 105 102 98 94 92 93 96 96 94 90 89 96 106 114 120 120 121 129 139 142 141 150 182 198 211 223 229 233 235 236 236 235 235 236 236 237 238 238 238 237 235 235 238 239 239 236 233 234
154 118 123 118 110 148 181 230 271 300 335 25 145 335 357 14 35 44 40 44 64 75 77 76 77 77 77 44 20 51 76 89 94 95 90 91 102 106 98 92 94 97 96 99 111 112 101 93 91 95 99 102 108 112 114 125 138 134 124 113 102 111 142 159 173 191 211 226 231 233 235 235 235 235 235 236 236 236 237 237 238 239 239 239 238 236 235
171 123 108 91 97 103 108 247 274 305 346 18 33 209 287 344 33 59 52 55 68 79 85 82 72 74 100 99 70 83 86 88 94 96 90 90 95 93 87 86 92 96 97 104 115 113 105 102 107 113 115 115 116 117 122 137 140 125 118 118 111 109 125 129 124 118 105 101 122 173 211 227 231 233 235 235 235 236 237 238 240 242 242 242 242 240 239
122 107 98 92 106 70 325 316 328 334 343 22 68 206 257 338 40 71 65 68 75 79 89 93 92 100 105 104 112 118 103 98 101 100 95 93 93 91 90 95 100 99 98 105 112 113 115 119 123 126 127 120 111 109 114 125 128 124 124 129 118 103 103 103 100 98 96 89 83 82 84 88 133 209 229 233 235 238 238 237 237 238 239 241 242 242 243
79 96 86 103 110 353 324 332 14 16 358 159 122 208 250 41 81 92 85 88 93 92 96 103 109 112 112 112 115 115 111 107 103 102 103 99 92 89 93 103 107 100 94 94 99 108 121 128 131 135 134 122 111 105 103 104 107 113 120 118 102 88 83 82 83 88 94 89 80 82 84 80 80 87 94 124 187 213 219 227 233 232 229 231 235 237 240
72 77 59 88 133 341 355 17 33 22 29 146 127 118 137 114 102 103 97 102 110 107 108 112 114 112 111 115 120 121 116 109 104 107 111 104 98 97 99 107 117 116 106 100 99 109 127 138 144 147 141 130 123 116 109 105 101 99 97 93 89 84 79 73 72 77 86 86 82 90 96 91 84 82 84 92 104 117 134 172 206 212 212 218 224 230 234
91 103 55 117 159 35 48 76 94 73 105 135 132 122 116 103 105 105 96 101 118 125 123 123 121 117 116 119 124 126 122 112 106 108 110 109 111 110 103 105 118 129 134 133 133 141 140 134 139 143 137 132 128 119 118 120 118 111 103 96 91 85 78 72 66 67 76 81 83 94 106 103 92 84 80 81 82 81 81 90 115 143 166 192 216 230 237
73 100 133 148 113 73 75 97 111 107 110 122 123 118 117 119 119 110 96 96 107 123 132 133 134 134 133 132 136 139 137 126 116 112 116 121 121 115 106 108 120 129 132 133 135 134 123 112 114 113 108 111 111 106 110 119 121 118 117 118 115 105 94 84 70 63 69 73 75 86 103 110 106 99 93 92 88 82 77 79 85 89 88 84 83 92 134
83 93 118 128 107 88 90 102 105 103 103 104 108 113 118 124 116 107 104 103 103 111 123 127 134 143 143 141 145 150 146 137 128 123 127 131 129 121 113 112 111 110 111 111 112 112 107 104 108 107 105 107 106 101 102 106 109 112 113 118 125 121 111 101 89 81 85 85 83 91 103 110 113 113 112 110 103 94 90 89 87 82 82 85 89 89 88
109 100 114 117 108 103 102 103 102 99 92 93 104 111 118 124 116 110 118 116 105 108 116 114 116 125 135 142 149 150 146 143 141 139 137 135 131 126 123 123 124 120 117 116 116 112 107 107 111 111 109 108 103 99 100 101 101 106 107 107 109 113 116 116 113 113 115 115 110 104 96 88 88 106 123 128 122 110 104 104 105 103 100 102 100 88 74
112 121 114 106 105 105 103 104 108 108 96 91 98 103 112 123 119 116 128 129 117 117 121 115 112 114 121 136 146 147 145 149 153 149 142 138 137 137 136 145 155 154 146 138 129 118 111 108 106 103 99 94 86 84 89 96 101 105 107 101 92 93 111 126 128 132 144 150 150 157 144 51 27 50 129 146 146 138 134 136 139 143 141 134 120 64 34
100 116 116 110 105 102 102 104 108 111 106 97 94 95 99 107 108 108 116 120 116 122 127 124 122 119 119 133 147 148 143 141 147 153 154 151 150 151 151 158 172 182 182 157 120 104 105 101 92 92 95 95 96 90 85 104 121 124 119 110 102 107 121 127 129 145 190 203 183 195 237 280 316 1 133 151 156 152 150 151 153 158 166 174 191 301 348
119 128 123 122 116 104 107 109 108 112 112 104 98 96 94 94 97 99 104 106 109 122 132 135 135 131 126 131 144 153 156 152 149 156 162 162 162 166 167 167 171 181 190 187 153 89 87 80 70 69 65 70 93 105 108 126 144 149 142 139 148 156 150 143 148 163 187 215 229 237 243 76 70 85 106 118 121 134 155 172 179 185 195 206 221 246 265
139 134 124 120 113 99 102 109 113 118 120 113 106 103 100 100 102 97 95 98 100 105 112 119 134 148 151 147 140 145 161 171 171 171 174 176 176 181 191 196 194 194 200 206 223 263 302 325 345 359 4 7 20 33 75 149 169 175 173 172 178 177 171 169 174 180 190 210 239 249 221 97 87 85 84 79 75 84 100 135 192 225 238 241 245 249 254
123 129 125 121 116 110 110 115 117 120 122 118 112 108 109 113 114 109 101 96 93 97 100 94 94 121 151 159 158 157 161 175 191 195 197 204 209 208 213 221 226 228 227 230 244 263 273 279 287 301 314 315 316 323 321 280 214 196 197 204 208 197 189 191 195 199 201 205 217 226 218 142 91 82 71 64 65 66 62 59 62 57 331 287 277 272 270
129 134 132 128 126 125 123 123 121 122 126 125 120 120 122 124 126 126 120 110 102 103 103 97 93 97 106 116 131 179 188 182 197 205 210 222 230 231 231 234 239 245 250 253 257 259 262 269 276 282 291 295 294 295 294 286 269 235 223 232 244 228 204 204 210 215 220 227 229 223 215 199 145 91 61 44 54 53 42 34 38 40 34 25 14 1 340
130 132 132 132 134 134 132 129 123 122 131 133 125 125 130 134 140 140 133 130 122 111 106 110 113 108 108 116 108 57 331 205 209 228 238 245 248 248 245 243 243 248 255 261 263 261 260 265 272 275 279 281 282 285 286 279 272 255 236 240 261 262 196 201 210 216 225 236 235 220 208 196 172 140 107 40 30 39 31 18 17 22 19 13 13 17 16
131 135 138 139 139 137 137 134 126 122 131 133 125 121 124 130 142 145 137 132 132 119 113 122 121 110 109 131 123 100 84 225 246 256 256 255 256 258 258 255 250 248 253 260 264 267 268 270 271 272 272 271 275 282 281 272 267 255 231 230 242 242 202 199 205 205 210 213 202 194 195 193 188 179 159 134 88 40 13 357 7 25 22 0 355 360 6
134 140 150 153 146 139 138 138 135 134 137 135 130 128 124 127 141 145 131 113 107 108 109 109 106 97 73 44 111 126 139 117 327 308 291 278 267 258 254 256 252 246 247 254 261 266 271 273 271 267 261 261 269 278 275 265 258 246 229 225 226 223 219 220 219 191 117 113 134 151 165 183 198 205 185 156 142 117 67 17 351 7 6 351 343 350 6
137 133 136 141 140 139 138 138 137 140 140 137 133 131 126 121 121 120 116 115 112 102 78 51 54 82 60 8 355 313 249 234 250 289 290 288 284 275 263 259 254 246 243 248 254 259 263 265 266 262 255 256 265 272 269 260 252 241 228 218 213 212 215 217 213 162 122 112 102 107 130 155 177 192 189 172 165 158 149 178 278 318 341 327 309 326 353
138 132 130 132 134 136 138 139 140 141 141 138 134 129 126 124 115 101 101 118 125 103 71 60 31 249 266 306 323 299 277 272 271 275 277 280 288 289 281 271 261 253 250 250 250 250 252 255 258 257 251 251 258 264 264 257 244 230 223 220 219 217 211 206 202 186 173 160 118 116 130 140 151 167 179 165 156 159 162 160 312 314 285 258 273 306 325
145 140 139 140 142 143 145 146 145 142 140 139 137 136 131 125 119 106 94 115 138 132 104 107 351 310 284 272 268 270 280 288 291 292 289 286 286 286 284 280 273 266 264 262 258 255 252 251 252 252 249 250 256 260 260 254 241 231 228 226 224 219 207 197 198 197 192 193 188 171 164 156 151 155 155 145 148 159 158 142 156 248 247 251 278 304 313
153 148 145 149 154 153 151 151 151 150 152 152 148 147 146 137 131 133 133 149 185 237 257 250 261 277 278 271 269 271 279 289 296 297 297 297 296 292 291 289 284 279 278 275 270 263 256 251 250 249 246 248 252 254 255 251 242 236 234 229 221 218 211 202 202 205 202 198 197 189 179 176 176 169 153 157 170 174 161 154 194 235 244 262 281 285 293
160 158 157 162 167 160 154 155 158 157 156 155 150 149 157 165 164 164 169 179 203 243 258 251 255 263 267 267 267 268 273 282 290 294 298 302 305 304 299 293 290 288 287 282 277 271 264 260 259 255 247 243 246 251 254 249 240 236 237 230 218 214 214 209 207 210 208 201 198 197 195 192 186 182 184 194 201 195 185 182 202 228 242 255 266 275 286
170 169 170 174 175 169 163 165 169 168 163 162 162 159 162 165 163 167 184 197 206 225 240 246 255 263 265 269 273 276 278 277 279 283 286 291 298 301 297 291 290 291 292 289 285 281 278 278 277 267 251 244 243 244 243 239 234 233 234 230 220 216 218 216 211 208 207 203 200 203 207 202 191 191 203 219 229 223 211 208 211 225 247 265 275 284 292
175 173 170 169 169 170 167 165 166 166 164 162 161 163 170 177 183 195 214 221 226 240 249 253 260 265 266 268 272 277 280 279 277 279 277 276 278 283 288 291 293 292 292 291 289 285 281 280 282 279 268 260 254 247 240 236 232 225 222 226 229 225 220 216 212 209 208 207 206 212 216 212 207 211 218 228 238 245 245 241 236 239 261 286 295 296 295
173 166 160 161 163 167 167 162 161 166 172 178 185 189 199 212 222 233 244 247 250 253 253 252 255 257 259 260 263 268 273 275 276 280 282 282 282 280 279 282 287 289 292 294 292 288 284 280 280 283 281 271 259 249 241 238 235 223 214 219 227 224 221 223 219 208 199 199 207 218 223 223 227 232 232 233 244 262 269 254 229 214 225 263 294 303 300
168 165 163 165 169 174 177 177 177 179 185 196 206 212 221 231 237 248 260 267 270 273 272 271 271 271 269 267 264 264 266 267 271 278 285 290 293 291 287 284 283 282 287 292 291 286 283 281 279 280 278 272 262 253 245 242 240 230 217 214 213 204 202 208 205 196 196 203 213 223 232 238 239 232 223 226 240 246 226 211 204 203 213 225 235 307 325
162 169 173 173 175 181 190 194 194 191 188 187 193 206 220 232 242 253 261 264 268 275 277 280 284 288 290 288 284 282 282 282 281 282 283 283 287 294 299 297 290 284 284 286 286 283 281 281 279 278 277 276 273 268 263 255 244 229 217 213 208 196 186 188 194 203 218 224 224 227 234 236 224 209 203 210 222 215 203 208 216 218 220 223 227 239 273
163 173 178 177 176 182 189 189 184 179 178 182 191 210 234 251 262 268 265 259 255 253 254 259 264 267 270 275 281 288 292 288 282 281 283 284 287 292 296 295 291 285 283 283 284 283 281 280 279 276 276 278 278 279 280 271 250 231 219 214 214 215 220 232 240 238 230 223 218 218 218 210 201 199 196 199 218 226 224 224 227 227 224 227 235 245 252
173 176 178 178 177 174 168 164 166 171 178 187 196 209 226 246 261 270 275 275 268 261 260 262 268 272 272 267 267 273 279 281 278 278 282 285 288 292 296 298 295 291 288 288 289 287 283 283 283 280 278 278 277 278 283 281 256 235 222 215 217 227 238 245 239 225 217 213 210 209 207 205 204 206 207 209 222 235 241 242 244 247 246 243 243 245 246
179 176 173 173 172 168 164 165 168 170 174 182 188 196 217 240 252 261 276 284 284 284 284 279 278 283 283 276 273 276 281 284 285 285 286 287 289 292 297 299 296 293 293 294 295 292 287 286 286 283 280 279 277 276 278 273 248 230 222 219 222 226 226 221 214 209 208 211 214 220 226 228 223 218 225 235 243 249 255 259 259 260 264 264 253 238 231
179 174 171 170 168 167 167 171 174 175 180 198 212 220 235 252 261 273 292 303 308 315 318 310 297 292 289 286 287 289 289 291 292 289 286 285 287 289 292 292 291 293 295 296 297 299 298 293 289 284 279 276 275 274 269 253 232 225 226 224 219 211 208 212 213 207 202 207 216 223 229 233 226 218 230 247 253 255 261 266 260 250 246 250 241 227 226
175 173 173 172 172 172 177 185 196 199 198 210 229 242 255 271 287 300 308 308 307 309 310 303 295 292 289 288 289 289 287 289 290 286 283 283 284 286 289 291 291 292 294 293 294 297 299 297 294 290 282 273 268 261 251 237 226 225 227 223 214 205 199 202 207 208 207 206 204 198 196 202 214 221 228 238 246 249 259 272 268 249 237 235 232 230 235
175 174 173 172 173 177 185 196 202 195 190 201 227 257 282 298 301 297 291 290 292 293 292 292 291 290 288 285 283 282 283 287 290 291 293 295 295 294 295 296 297 297 297 297 297 296 295 296 297 291 276 264 253 241 236 235 233 228 225 221 217 213 210 208 210 213 214 212 208 204 199 196 201 213 221 228 234 235 241 259 262 245 237 239 240 238 239
175 175 175 178 182 186 193 197 195 195 201 212 232 292 302 266 267 282 292 297 301 300 298 296 296 295 293 289 284 284 288 291 294 296 299 300 300 300 300 301 303 302 300 300 300 296 290 287 284 274 262 255 245 234 232 236 235 232 230 226 219 215 215 217 219 221 222 223 223 222 219 219 223 227 233 241 246 246 240 239 242 240 238 240 243 244 245
178 177 178 182 184 186 189 197 206 214 220 216 194 210 238 253 269 287 299 306 311 313 313 311 305 298 292 287 284 287 294 299 299 298 298 298 298 299 300 302 304 303 300 299 301 297 283 265 246 231 227 232 231 230 233 232 224 221 218 208 195 195 202 209 215 222 229 233 235 234 233 238 247 252 253 251 248 240 235 241 250 253 253 253 251 247 243
180 182 183 183 184 189 197 209 221 213 183 170 189 213 227 251 276 287 298 312 320 324 325 323 316 308 302 298 295 295 299 302 300 300 302 302 301 301 303 305 304 300 298 301 307 311 297 276 252 229 221 221 211 197 188 185 182 183 186 187 187 193 201 204 210 222 233 233 234 233 227 224 230 237 237 228 221 220 230 243 252 257 260 263 259 247 238
179 183 183 180 181 192 201 201 178 156 162 182 204 208 212 245 265 265 274 306 324 331 330 325 320 316 317 319 316 313 312 311 304 301 303 305 308 312 317 318 316 314 314 314 314 314 303 292 276 264 264 260 229 183 162 155 151 154 171 187 188 180 161 178 191 201 204 204 211 215 204 197 207 221 222 217 220 229 239 246 252 256 261 265 261 245 239
178 180 177 173 177 189 190 172 161 172 185 200 210 205 210 241 270 300 341 333 340 348 335 321 322 325 326 325 328 333 332 328 318 306 301 303 313 323 327 322 315 314 312 309 300 283 268 267 270 273 268 240 190 168 164 160 153 153 172 190 190 190 196 198 200 204 207 212 225 237 225 207 213 236 243 238 239 243 246 250 254 257 257 256 250 242 244
178 180 174 169 177 186 178 157 164 177 182 194 216 218 200 185 163 113 21 340 337 343 321 317 329 340 340 337 340 335 324 321 322 318 312 316 329 342 351 344 330 323 315 300 286 267 250 250 251 226 195 181 171 166 165 166 165 168 174 182 189 197 203 203 208 218 225 231 245 262 254 218 197 200 232 246 249 253 257 260 263 263 259 255 250 245 245
186 190 185 180 184 188 185 184 194 198 195 206 225 209 172 167 175 169 10 359 357 10 328 326 336 347 351 356 3 2 348 339 334 326 322 333 356 20 35 24 6 2 7 12 316 250 255 243 203 179 172 172 176 175 173 173 175 176 176 183 198 208 211 212 218 231 242 250 261 278 281 242 218 221 232 241 245 250 254 256 259 262 263 261 256 250 245
176 181 187 189 191 191 187 195 211 199 185 191 206 183 160 167 182 197 21 31 61 100 342 322 334 350 358 3 16 23 18 4 354 349 3 32 50 62 71 74 65 49 41 48 68 74 342 198 178 173 169 165 166 168 167 169 173 175 177 200 220 227 235 245 245 239 243 252 250 241 235 253 265 261 256 255 256 256 256 256 259 262 261 258 257 259 258